Location: Fensholt
(55.9856°N, 10.0808°E)
Time: 10:46:14
(UTC+00:00)

Meteor 2-10 Rocket - Pass Details

Date: 07 June 2020
Orbit: 733 x 885 km, 81.2° (Epoch: 04 July)

Event Time Altitude Azimuth Distance (km) Brightness Sun altitude
Rises 00:23:48 0° 341° (NNW) 3,272 7.8 -10.0°
Reaches altitude 10° 00:26:19 10° 334° (NNW) 2,318 6.8 -9.9°
Maximum altitude 00:31:05 38° 268° (W) 1,137 4.2 -9.7°
Enters shadow 00:35:15 12° 203° (SSW) 2,085 5.1 -9.6°
